Flag for Laos Weather past 2 weeks in Vientiane, Laos

Now
73 °F

Fog.


Feels Like: 68 °F
Forecast: 74 / 83 °F
Wind: 2 mph from East

Location: Vientiane Airport

Current Time: Aug 1, 2015 at 1:13:25 AM

Latest Report: Jul 31, 2015 at 11:00 PM


Visibility: 2 mi

Pressure: 29.83 "Hg

Humidity: 100%

Dew point: 73 °F

Location of VientianeLocation

Historic Weather in Vientiane — Graph

°F

Vientiane temperature yesterday

Maximum temperature yesterday: 86 °F (at 1:30 PM)
Minimum temperature yesterday: 73 °F (at 9:00 PM)
Average temperature yesterday: 79 °F

Past Weeks' High & Low Weather Summary

 TemperatureHumidityPressure
High90 °F (Jul 18, 2:00 PM)100% (Jul 17, 6:00 AM)29.89 "Hg (Jul 17, 6:00 AM)
Low73 °F (Jul 30, 6:00 AM)59% (Jul 26, 2:30 PM)29.56 "Hg (Jul 19, 5:30 PM)
Average81 °F85%29.75 "Hg
* Reported Jul 16 11:00 PM — Jul 31 11:00 PM, Vientiane, Weather by CustomWeather, © 2015

Note: Actual official high and low records may vary slightly from our data, if they occured in-between our weather recording intervals... More about our weather records

Advertising

Vientiane weather history for previous 24 hours

 ConditionsComfort  
Time TempWeatherWind HumidityBarometerVisibility
11:00 PM
Fri, Jul 31
73 °FFog.2 mph100%29.83 "Hg2 mi
10:30 PM75 °FPassing clouds.2 mph94%29.83 "Hg2 mi
10:00 PM75 °FPassing clouds.2 mph94%29.83 "Hg2 mi
9:30 PM73 °FThunderstorms. Passing clouds.5 mph100%29.83 "Hg2 mi
9:00 PM73 °FThunderstorms. Passing clouds.5 mph100%29.83 "Hg2 mi
8:30 PM79 °FPassing clouds.2 mph94%29.77 "Hg2 mi
8:00 PM79 °FPassing clouds.2 mph94%29.77 "Hg2 mi
7:30 PM81 °FFog.5 mph84%29.74 "Hg2 mi
7:00 PM81 °FFog.5 mph84%29.74 "Hg3 mi
6:30 PM82 °FFog.2 mph84%29.74 "Hg3 mi
6:00 PM82 °FBroken clouds.2 mph84%29.74 "Hg4 mi
5:30 PM84 °FPartly sunny.2 mph70%29.74 "Hg4 mi
5:00 PM84 °FPartly sunny.2 mph70%29.74 "Hg4 mi
4:30 PM84 °FLight rain. Partly sunny.5 mph79%29.74 "Hg4 mi
4:00 PM84 °FRain. Partly sunny.2 mph79%29.74 "Hg4 mi
3:00 PM84 °FPartly sunny.2 mph79%29.74 "Hg5 mi
2:30 PM84 °FPartly sunny.2 mph79%29.77 "Hg5 mi
2:00 PM84 °FPartly sunny.2 mph79%29.77 "Hg5 mi
1:30 PM86 °FScattered clouds.5 mph70%29.80 "Hg5 mi
1:00 PM84 °FScattered clouds.5 mph74%29.80 "Hg5 mi
12:00 PM79 °FPartly sunny.2 mph89%29.83 "Hg4 mi
11:30 AM81 °FPartly sunny.2 mph84%29.83 "Hg4 mi
11:00 AM79 °FPartly sunny.2 mph89%29.83 "Hg4 mi
10:30 AM81 °FPartly sunny.2 mph84%29.83 "Hg4 mi
10:00 AM79 °FPartly sunny.2 mph89%29.83 "Hg4 mi
9:30 AM77 °FRain. Broken clouds.2 mph94%29.83 "Hg4 mi
9:00 AM77 °FDrizzle. Broken clouds.2 mph94%29.83 "Hg3 mi
8:30 AM75 °FDrizzle. Partly sunny.2 mph94%29.83 "Hg2 mi
8:00 AM75 °FLight rain. Partly sunny.2 mph94%29.83 "Hg2 mi
7:30 AM75 °FRain. Partly sunny.2 mph94%29.83 "Hg2 mi
7:00 AM75 °FRain. Partly sunny.2 mph94%29.83 "Hg2 mi
6:30 AM77 °FRain. Partly sunny.2 mph94%29.77 "Hg2 mi
6:00 AM77 °FRain. Partly sunny.2 mph94%29.77 "Hg2 mi
Weather by CustomWeather, © 2015

See weather overviewHow to use our weather pages